LOT2164 EPWA-EPGD

Flight info

Callsign LOT2164
Flight time 0h 44m
Altitude 28000
Route OLILA L621 RILAB DCT OSLOG
Aircraft E190/M-SDE3GILORVW/S

Departure

Time 2026-05-04 10:17
Airport Warsaw Chopin Airport (EPWA)

Arrival

Time 2026-05-04 11:01
Airport Gdańsk Lech Wałęsa Airport (EPGD)
Time Latitude Longitude Altitude Speed Heading
2026-05-04 09:25 52.17209 20.96960 351 ft 0 kts 64°
2026-05-04 10:00 52.17207 20.96952 360 ft 4 kts 64°
2026-05-04 10:02 52.17196 20.96808 354 ft 0 kts 153°
2026-05-04 10:11 52.17183 20.96819 354 ft 4 kts 153°
2026-05-04 10:11 52.17144 20.96852 356 ft 8 kts 151°
2026-05-04 10:11 52.17082 20.96907 355 ft 12 kts 151°
2026-05-04 10:12 52.16995 20.96980 355 ft 16 kts 154°
2026-05-04 10:12 52.16889 20.97073 354 ft 19 kts 152°
2026-05-04 10:12 52.16765 20.97184 354 ft 22 kts 150°
2026-05-04 10:12 52.16624 20.97306 352 ft 25 kts 152°
2026-05-04 10:13 52.16537 20.97502 355 ft 22 kts 116°
2026-05-04 10:13 52.16468 20.97744 354 ft 25 kts 115°
2026-05-04 10:13 52.16393 20.98015 356 ft 27 kts 116°
2026-05-04 10:13 52.16326 20.98253 357 ft 17 kts 113°
2026-05-04 10:14 52.16271 20.98440 358 ft 19 kts 124°
2026-05-04 10:14 52.16206 20.98452 351 ft 0 kts 205°
2026-05-04 10:16 52.16119 20.98335 352 ft 0 kts 291°
2026-05-04 10:16 52.16122 20.98323 353 ft 3 kts 290°
2026-05-04 10:16 52.16190 20.98081 353 ft 71 kts 294°
2026-05-04 10:16 52.16551 20.96801 447 ft 166 kts 291°
2026-05-04 10:17 52.17087 20.94804 1130 ft 213 kts 290°
2026-05-04 10:17 52.17701 20.92562 2501 ft 213 kts 289°
2026-05-04 10:19 52.25188 20.83021 9337 ft 249 kts 292°
2026-05-04 10:19 52.25980 20.80373 10218 ft 271 kts 297°
2026-05-04 10:19 52.27324 20.77968 10853 ft 306 kts 321°
2026-05-04 10:19 52.29387 20.76671 11475 ft 342 kts 348°
2026-05-04 10:20 52.31862 20.76784 12493 ft 358 kts
2026-05-04 10:20 52.34319 20.77397 13576 ft 368 kts
2026-05-04 10:20 52.36871 20.77987 14167 ft 367 kts
2026-05-04 10:20 52.39438 20.78196 15388 ft 372 kts 358°
2026-05-04 10:21 52.42042 20.78400 16554 ft 379 kts 359°
2026-05-04 10:21 52.44704 20.78638 17661 ft 386 kts 359°
2026-05-04 10:21 52.47411 20.78777 18677 ft 389 kts 352°
2026-05-04 10:21 52.49979 20.77639 19705 ft 381 kts 328°
2026-05-04 10:22 52.53577 20.71516 21607 ft 378 kts 303°
2026-05-04 10:22 52.55133 20.68003 22415 ft 384 kts 303°
2026-05-04 10:22 52.56711 20.64409 23198 ft 390 kts 303°
2026-05-04 10:23 52.58290 20.60740 23926 ft 396 kts 302°
2026-05-04 10:23 52.59861 20.56999 24648 ft 400 kts 302°
2026-05-04 10:25 52.71620 20.30681 27942 ft 373 kts 308°
2026-05-04 10:25 52.73293 20.27605 27935 ft 349 kts 308°
2026-05-04 10:25 52.74879 20.24701 27952 ft 337 kts 308°
2026-05-04 10:25 52.76453 20.21809 27980 ft 341 kts 308°
2026-05-04 10:26 52.78045 20.18881 27979 ft 343 kts 308°
2026-05-04 10:26 52.79644 20.15941 27979 ft 344 kts 308°
2026-05-04 10:26 52.81245 20.12995 27991 ft 345 kts 308°
2026-05-04 10:26 52.82803 20.09995 27987 ft 344 kts 305°
2026-05-04 10:27 52.84317 20.06934 27986 ft 344 kts 305°
2026-05-04 10:27 52.85835 20.03877 27990 ft 344 kts 305°
2026-05-04 10:27 52.87356 20.00825 27970 ft 344 kts 305°
2026-05-04 10:27 52.88859 19.97813 27972 ft 343 kts 306°
2026-05-04 10:28 52.90387 19.94763 27954 ft 343 kts 306°
2026-05-04 10:28 52.91912 19.91712 27968 ft 344 kts 306°
2026-05-04 10:28 52.93439 19.88657 27954 ft 344 kts 306°
2026-05-04 10:28 52.94964 19.85599 27954 ft 344 kts 306°
2026-05-04 10:29 52.96487 19.82540 27953 ft 344 kts 305°
2026-05-04 10:29 52.98008 19.79484 27951 ft 344 kts 305°
2026-05-04 10:29 52.99528 19.76426 27955 ft 344 kts 305°
2026-05-04 10:29 53.01052 19.73357 27964 ft 343 kts 305°
2026-05-04 10:30 53.02568 19.70300 27961 ft 343 kts 305°
2026-05-04 10:30 53.04088 19.67230 27968 ft 344 kts 305°
2026-05-04 10:30 53.05630 19.64275 27968 ft 344 kts 312°
2026-05-04 10:30 53.07507 19.61749 27811 ft 351 kts 317°
2026-05-04 10:31 53.09460 19.59320 27569 ft 348 kts 319°
2026-05-04 10:31 53.11403 19.56943 27280 ft 346 kts 319°
2026-05-04 10:32 53.22768 19.43009 24481 ft 328 kts 319°
2026-05-04 10:33 53.24593 19.40761 24052 ft 325 kts 319°
2026-05-04 10:33 53.26409 19.38519 23612 ft 323 kts 319°
2026-05-04 10:33 53.28205 19.36301 23151 ft 320 kts 319°
2026-05-04 10:33 53.29985 19.34101 22755 ft 316 kts 319°
2026-05-04 10:34 53.31724 19.31950 22339 ft 314 kts 318°
2026-05-04 10:35 53.33316 19.30023 21952 ft 312 kts 320°
2026-05-04 10:35 53.35085 19.27931 21535 ft 310 kts 319°
2026-05-04 10:35 53.36830 19.25825 21121 ft 308 kts 319°
2026-05-04 10:35 53.38554 19.23705 20718 ft 306 kts 318°
2026-05-04 10:36 53.40262 19.21586 20309 ft 304 kts 318°
2026-05-04 10:36 53.41956 19.19479 19908 ft 302 kts 318°
2026-05-04 10:36 53.43639 19.17381 19510 ft 300 kts 318°
2026-05-04 10:36 53.45312 19.15292 19102 ft 299 kts 317°
2026-05-04 10:37 53.46976 19.13211 18715 ft 297 kts 317°
2026-05-04 10:37 53.48610 19.11162 18315 ft 296 kts 317°
2026-05-04 10:37 53.50262 19.09088 17902 ft 294 kts 317°
2026-05-04 10:37 53.51890 19.07041 17535 ft 291 kts 317°
2026-05-04 10:39 53.61480 18.94938 15236 ft 281 kts 316°
2026-05-04 10:39 53.63043 18.92960 14866 ft 279 kts 316°
2026-05-04 10:39 53.64570 18.91025 14500 ft 278 kts 316°
2026-05-04 10:40 53.66109 18.89068 14138 ft 277 kts 316°
2026-05-04 10:40 53.67649 18.87110 13775 ft 275 kts 316°
2026-05-04 10:40 53.69173 18.85170 13395 ft 273 kts 316°
2026-05-04 10:40 53.70687 18.83246 13048 ft 271 kts 315°
2026-05-04 10:41 53.72190 18.81328 12693 ft 270 kts 315°
2026-05-04 10:41 53.73686 18.79418 12336 ft 269 kts 315°
2026-05-04 10:41 53.75173 18.77518 12145 ft 266 kts 315°
2026-05-04 10:41 53.76824 18.75994 12015 ft 279 kts 334°
2026-05-04 10:42 53.78782 18.75557 11896 ft 292 kts 352°
2026-05-04 10:42 53.80820 18.75676 11902 ft 293 kts 355°
2026-05-04 10:42 53.82860 18.75802 11916 ft 294 kts 355°
2026-05-04 10:42 53.84912 18.75910 11917 ft 295 kts 355°
2026-05-04 10:43 53.86865 18.76011 11924 ft 295 kts 354°
2026-05-04 10:44 54.01249 18.76648 11918 ft 295 kts 354°
2026-05-04 10:45 54.03307 18.76748 11918 ft 295 kts 354°
2026-05-04 10:45 54.05347 18.76847 11929 ft 293 kts 355°
2026-05-04 10:45 54.07366 18.76947 11881 ft 287 kts 355°
2026-05-04 10:45 54.09330 18.77047 11763 ft 278 kts 355°
2026-05-04 10:46 54.11173 18.76672 11602 ft 263 kts 332°
2026-05-04 10:46 54.12579 18.74897 11489 ft 246 kts 300°
2026-05-04 10:46 54.13324 18.72359 11382 ft 238 kts 288°
2026-05-04 10:46 54.13969 18.69764 11254 ft 237 kts 288°
2026-05-04 10:47 54.14618 18.67181 11047 ft 237 kts 288°
2026-05-04 10:47 54.15329 18.64646 10797 ft 240 kts 297°
2026-05-04 10:47 54.16597 18.62698 10524 ft 255 kts 326°
2026-05-04 10:47 54.18374 18.62087 10278 ft 273 kts 358°
2026-05-04 10:49 54.20740 18.79033 8507 ft 274 kts 123°
2026-05-04 10:49 54.19926 18.81979 8244 ft 274 kts 121°
2026-05-04 10:50 54.19144 18.84940 7988 ft 273 kts 121°
2026-05-04 10:51 54.15236 19.05420 6187 ft 254 kts 60°
2026-05-04 10:52 54.16452 19.07530 5958 ft 250 kts 24°
2026-05-04 10:52 54.18063 19.08562 5796 ft 248 kts
2026-05-04 10:52 54.19737 19.09346 5540 ft 248 kts
2026-05-04 10:54 54.25233 18.96765 3943 ft 195 kts 288°
2026-05-04 10:54 54.25789 18.94627 3978 ft 197 kts 288°
2026-05-04 10:56 54.29256 18.80817 4017 ft 175 kts 289°
2026-05-04 10:56 54.29731 18.78909 4036 ft 174 kts 289°
2026-05-04 10:56 54.30203 18.76996 4058 ft 173 kts 289°
2026-05-04 10:57 54.30657 18.75084 3919 ft 175 kts 288°
2026-05-04 10:57 54.31094 18.73185 3685 ft 163 kts 288°
2026-05-04 10:57 54.31491 18.71445 3415 ft 154 kts 288°
2026-05-04 10:57 54.31961 18.69818 3148 ft 151 kts 296°
2026-05-04 10:58 54.32424 18.68241 2893 ft 145 kts 288°
2026-05-04 10:58 54.32785 18.66664 2686 ft 141 kts 289°
2026-05-04 10:58 54.33193 18.65060 2501 ft 149 kts 290°
2026-05-04 10:58 54.33609 18.63415 2303 ft 152 kts 289°
2026-05-04 10:59 54.34024 18.61724 2102 ft 155 kts 290°
2026-05-04 10:59 54.34438 18.60041 1885 ft 151 kts 290°
2026-05-04 10:59 54.34840 18.58433 1727 ft 144 kts 290°
2026-05-04 10:59 54.35228 18.56875 1493 ft 136 kts 290°
2026-05-04 11:00 54.35585 18.55424 1294 ft 130 kts 291°
2026-05-04 11:01 54.37655 18.47042 454 ft 41 kts 298°
2026-05-04 11:02 54.37824 18.46737 452 ft 25 kts 321°
2026-05-04 11:02 54.37893 18.46707 452 ft 5 kts 20°
2026-05-04 11:05 54.38153 18.46501 449 ft 0 kts 18°